This is the latest recevied weather packets stored in our database for station/object K1BWE-1. If no packets are shown the sender has not sent any weather packets the latest 10 day(s).
| Time | Temp. | Humidity | Pressure | Rain* | Wind** | Luminosity | Snow |
|---|---|---|---|---|---|---|---|
| 1777900471 | 20.56° C | 35% | 1014.8 hPa | 0 mm | - | 47 W/m² | - |
| 1777900167 | 20.56° C | 34% | 1014.7 hPa | 0 mm | - | 41 W/m² | - |
| 1777898956 | 20° C | 33% | 1014.7 hPa | 0 mm | - | 8 W/m² | - |
| 1777898653 | 20° C | 33% | 1014.5 hPa | 0 mm | - | 5 W/m² | - |
| 1777898350 | 20° C | 33% | 1014.3 hPa | 0 mm | - | 1 W/m² | - |
| 1777898048 | 20° C | 33% | 1014.4 hPa | 0 mm | - | 0 W/m² | - |
| 1777897743 | 20° C | 32% | 1014.5 hPa | 0 mm | - | 0 W/m² | - |
| 1777897440 | 20° C | 33% | 1014.1 hPa | 0 mm | - | 0 W/m² | - |
| 1777897136 | 20° C | 32% | 1014 hPa | 0 mm | - | 0 W/m² | - |
| 1777896832 | 20° C | 32% | 1014.1 hPa | 0 mm | - | 0 W/m² | - |
| 1777896530 | 20° C | 32% | 1014 hPa | 0 mm | - | 0 W/m² | - |
| 1777895924 | 20° C | 32% | 1014.1 hPa | 0 mm | - | 0 W/m² | - |
| 1777894108 | 20.56° C | 32% | 1013.8 hPa | 0 mm | - | 0 W/m² | - |
| 1777893805 | 20.56° C | 32% | 1014.1 hPa | 0 mm | - | 0 W/m² | - |
| 1777893501 | 20.56° C | 32% | 1014 hPa | 0 mm | - | 0 W/m² | - |
| 1777893198 | 20.56° C | 32% | 1014.1 hPa | 0 mm | - | 0 W/m² | - |
| 1777892894 | 20.56° C | 32% | 1013.9 hPa | 0 mm | - | 0 W/m² | - |
| 1777892591 | 20.56° C | 32% | 1013.8 hPa | 0 mm | - | 0 W/m² | - |
| 1777891681 | 20.56° C | 32% | 1013.8 hPa | 0 mm | - | 0 W/m² | - |
| 1777891377 | 20.56° C | 32% | 1013.8 hPa | 0 mm | - | 0 W/m² | - |
| 1777891072 | 20.56° C | 33% | 1013.6 hPa | 0 mm | - | 0 W/m² | - |
| 1777890767 | 20.56° C | 33% | 1013.9 hPa | 0 mm | - | 0 W/m² | - |
| 1777889856 | 21.11° C | 33% | 1014.1 hPa | 0 mm | - | 0 W/m² | - |
| 1777889554 | 21.11° C | 33% | 1014 hPa | 0 mm | - | 0 W/m² | - |
| 1777889251 | 21.11° C | 33% | 1014 hPa | 0 mm | - | 0 W/m² | - |
* Rain latest hour (hover to see other rain measurements)
** Current wind speed in m/s (hover to see current wind gust speed)